Regional Weather Roundup
Issued by NWS Burlington, VT

Home | Current Version | Previous Version | Text Only | Print | Product List | Glossary On
Versions: 1 2 3 4 5 6 7 8 9 10 11 12 13 14 15 16 17 18 19 20 21 22 23 24 25 26 27 28 29 30 31 32 33 34 35 36 37 38 39 40 41 42 43 44 45 46 47 48 49 50
000
ASUS41 KBTV 251810
RWRBTV
VERMONT REGIONAL WEATHER ROUNDUP
NATIONAL WEATHER SERVICE BURLINGTON VT
200 PM EDT SUN SEP 25 2016

NOTE: "FAIR" INDICATES FEW OR NO CLOUDS BELOW 12,000 FEET WITH NO
SIGNIFICANT WEATHER AND/OR OBSTRUCTIONS TO VISIBILITY.

* THESE REPORTS ARE NOT UNDER NWS QUALITY CONTROL AND/OR DO NOT
  REPORT WEATHER SUCH AS PRECIPITATION AND FOG.

VTZ001>019-251900-
_____VERMONT_____


CITY           SKY/WX    TMP DP  RH WIND       PRES   REMARKS
BURLINGTON     MOSUNNY   59  31  34 N13G20    30.17F
6HR MIN TEMP:  41; 6HR MAX TEMP:  60;

MONTPELIER     MOSUNNY   54  35  48 W12G21    30.18F
6HR MIN TEMP:  42; 6HR MAX TEMP:  55;

MORRISVILLE    MOSUNNY   56  36  47 N12       30.17F
6HR MIN TEMP:  35; 6HR MAX TEMP:  56;

LYNDONVILLE*   FAIR      54  35  49 W12G21    30.14F
6HR MIN TEMP:  37; 6HR MAX TEMP:  54;

MIDDLEBURY*    FAIR      60  34  37 N8        30.16F
6HR MIN TEMP:  38; 6HR MAX TEMP:  60;

RUTLAND*       SUNNY     58  35  42 N12G18    30.15F
SPRINGFIELD    SUNNY     61  28  28 NW15G28   30.13F
6HR MIN TEMP:  35; 6HR MAX TEMP:  61;

HIGHGATE*      FAIR      58  37  44 CALM      30.17F
6HR MIN TEMP:  43; 6HR MAX TEMP:  58;

NEWPORT*       PTSUNNY   53  37  55 W9        30.15S
6HR MIN TEMP:  42; 6HR MAX TEMP:  53;

BENNINGTON     SUNNY     61  37  41 VRB6      30.17F
6HR MIN TEMP:  37; 6HR MAX TEMP:  61;

SUTTON*          N/A     54 N/A N/A MISG        N/A

_____LAKE CHAMPLAIN_____


CITY           SKY/WX    TMP DP  RH WIND       PRES   REMARKS
BURTON ISLAND*   N/A     59  37  44 NW1         N/A
COLCHESTER RF*   N/A     57  34  41 N15         N/A
DIAMOND ISL*     N/A     57  34  41 N16         N/A

$$

NYZ007-026>031-035-052-083-087-251900-
_____NORTHERN NEW YORK_____


CITY           SKY/WX    TMP DP  RH WIND       PRES   REMARKS
PLATTSBURGH    SUNNY     62  31  31 N14G22    30.16F
6HR MIN TEMP:  47; 6HR MAX TEMP:  62;

SARANAC LAKE   SUNNY     55  31  39 VRB6      30.18F
6HR MIN TEMP:  30; 6HR MAX TEMP:  56;

MASSENA        SUNNY     60  37  42 W12       30.22F
6HR MIN TEMP:  38; 6HR MAX TEMP:  61;

OGDENSBURG*    SUNNY     64  37  36 N5        30.21F
6HR MIN TEMP:  37; 6HR MAX TEMP:  64;

POTSDAM*       SUNNY     61  41  48 NW7       30.21F
WATERTOWN      SUNNY     62  37  39 N6        30.23F
6HR MIN TEMP:  35; 6HR MAX TEMP:  62;

FT DRUM        SUNNY     59  36  43 VRB3      30.22F
6HR MIN TEMP:  40; 6HR MAX TEMP:  59;

ALBANY         MOSUNNY   63  38  39 CALM      30.18F
6HR MIN TEMP:  44; 6HR MAX TEMP:  63;

GLENS FALLS    SUNNY     64  38  38 N8        30.15F
6HR MIN TEMP:  45; 6HR MAX TEMP:  64;


$$
NHZ002-005-011-251900-
_____NEW HAMPSHIRE_____


CITY           SKY/WX    TMP DP  RH WIND       PRES   REMARKS
LEBANON        SUNNY     62  34  35 NW12G22   30.12F
6HR MIN TEMP:  38; 6HR MAX TEMP:  62;

KEENE          MOSUNNY   61  33  35 N18       30.13F
6HR MIN TEMP:  36; 6HR MAX TEMP:  61;

MT WASHINGTON  FOG       27  27 100 NW39G48     N/A  VSB 1/16WCI   8
6HR MIN TEMP:  22; 6HR MAX TEMP:  26;

PLYMOUTH       FAIR      59  31  35 NW15G21   30.11F
6HR MIN TEMP:  44; 6HR MAX TEMP:  59;

WHITEFIELD     MOSUNNY   56  36  47 NW9G23    30.11F
6HR MIN TEMP:  34; 6HR MAX TEMP:  57;


$$

_____REGIONAL QUEBEC LOCATIONS_____


CITY           SKY/WX    TMP DP  RH WIND       PRES   REMARKS
MONTREAL       MOSUNNY   61  30  31 NW9       30.16F
QUEBEC CITY    PTSUNNY   57  37  47 NW10G18   30.09F
SHERBROOKE     CLOUDY    54  39  58 NW14G20   30.12R

_____REGIONAL ONTARIO LOCATIONS_____


CITY           SKY/WX    TMP DP  RH WIND       PRES   REMARKS
OTTAWA         MOSUNNY   61  34  36 NW8       30.21F

______KEY______
VSB  - VISIBILITY IN MILES
WCI  - WIND CHILL INDEX
HX   - HEAT INDEX
$$
NNNN



USA.gov is the U.S. government's official web portal to all federal, state and local government web resources and services.